Location: Arcizac
(43.0933°N, 0.0112°E)
Time: 05:12:31
(UTC+00:00)

IRIDIUM 114 - Pass Details

Date: 14 December 2019
Orbit: 776 x 779 km, 86.4° (Epoch: 21 January)

Event Time Altitude Azimuth Distance (km) Brightness Sun altitude
Rises 18:19:52 0° 171° (S) 3,247 7.6 -20.1°
Reaches altitude 10° 18:22:13 10° 167° (SSE) 2,324 6.8 -20.5°
Maximum altitude 18:27:20 60° 89° (E) 889 4.3 -21.4°
Enters shadow 18:30:06 27° 19° (NNE) 1,471 5.5 -21.9°
